Back to catalog

COSMOS 2302

AliveMilitaryPO
NORAD 23444·PAYLOAD·🇷🇺 Russia

Launched Dec 26, 1994 from Plesetsk Cosmodrome

Loading…

Next Passes (next 24 hours)

TLE

FreshSource: Space-Track

Epoch: Sep 14, 2026, 01:22 UTC

1 23444U 94086D   26257.05753995  .00000005  00000-0 -33269-4 0  9992
2 23444  82.5602 270.5927 0006861 352.9365  33.3845 12.61274719460026

Track COSMOS 2302 in real time with AllMySat

Download on the App Store